Location:  
MeteoStar


Sort by weather type Sort by elevation Sort by visibility Sort from west to east north Sort from north to south Alphabetically Sort from strongest wind speed Sort from lowest to highest pressure Sort from highest to lowest dew point temperature Sort coolest temperatures to warmest Sort warm temperatures to coolest
 Metric

Current Observations for Saudi Arabia

Abha01:00ZNot Avail.70 50CALM706856
Al Ahsa01:00ZNot Avail.86 30995.3NNW 6 83587
Al Baha01:00ZNot Avail.79 45WNW 6 795419
Al Qaysumah01:00ZNot Avail.95 50999.1N 10 921174
Al-Jouf01:00ZNot Avail.90 301005.4N 6 862260
Arar01:00ZNot Avail.86 451004.2NNW 7 831820
Bisha01:00ZNot Avail.79 501006.3CALM793828
Dhahran01:00ZNot Avail.82 52994.0NNE 5 8185
Gassim01:00ZNot Avail.88 431002.8NNW 8 842125
Gizan01:00ZNot Avail.91 791003.1NNW 3 10719
Guriat01:00ZNot Avail.73 431007.1WNW 8 731669
Hail01:00ZNot Avail.77 281005.9S 4 773330
Jeddah King Abdul Aziz International Airport 01:00ZNot Avail.88 751002.1SSE 4 9749
Khamis Mushait01:00ZNot Avail.70 54CALM706778
King Khaled International Airport01:00ZNot Avail.90 231000.1NW 11 862014
Madinah01:00ZNot Avail.93 231005.3NNE 4 892145
Makkah01:00ZNot Avail.91 731001.7CALM1001017
Najran01:00ZNot Avail.86 341003.9W 4 833976
Rafha01:00ZNot Avail.82 251001.9WNW 3 801473
Sharurah01:00ZPartly Cloudy82 411000.6S 5 802362
Tabuk01:00ZClear86 371007.0SSW 5 832552
Taif01:00ZNot Avail.81 371008.6WSW 6 794849
Turaif01:00ZNot Avail.77 501007.4W 6 772667
Wadi Al Dawasser Airport01:00ZNot Avail.82 481001.0WSW 6 812047
Wejh01:00ZNot Avail.84 721002.1NNW 9 8965
Yenbo01:00ZNot Avail.86 771001.1E 5 9726

Atlantic
Tropical Watch